Home   Weather   Worcester   Past weeks
Flag for USA

Past Weather in Worcester, Massachusetts, USA — Yesterday and Last 2 Weeks

Now
67 °F

Clear.


Feels Like: 67 °F
Forecast: 85 / 63 °F
Wind: 6 mph from Northwest

Location: Worcester Regional Airport

Current Time: Jul 15, 2019 at 10:44:55 pm

Latest Report: Jul 15, 2019 at 9:54 pm


Visibility: 10 mi

Pressure: 30.06 "Hg

Humidity: 73%

Dew Point: 58 °F

Location of WorcesterLocation

Past Weather in Worcester — Graph

°F

Worcester Temperature Yesterday

Maximum temperature yesterday: 83 °F (at 2:54 pm)
Minimum temperature yesterday: 68 °F (at 1:54 am)
Average temperature yesterday: 75 °F

High & Low Weather Summary for the Past Weeks

 TemperatureHumidityPressure
High88 °F (Jul 6, 2:54 pm)100% (Jul 6, 7:01 pm)30.18 "Hg (Jul 6, 7:01 pm)
Low59 °F (Jul 8, 3:54 am)36% (Jul 7, 5:54 pm)29.69 "Hg (Jul 12, 1:54 pm)
Average73 °F69%29.93 "Hg
* Reported Jun 30 8:54 pm — Jul 15 8:54 pm, Worcester. Weather by CustomWeather, © 2019

Note: Actual official high and low records may vary slightly from our data, if they occured in-between our weather recording intervals... More about our weather records

Advertising

Worcester Weather History for the Previous 24 Hours

Scroll right to see more
 ConditionsComfort  
Time TempWeatherWind HumidityBarometerVisibility
8:54 pm
Mon, Jul 15
68 °FClear.8 mph68%30.04 "Hg10 mi
7:54 pm72 °FSunny.7 mph64%30.03 "Hg10 mi
6:54 pm76 °FSunny.6 mph60%30.02 "Hg10 mi
5:54 pm77 °FSunny.7 mph52%30.02 "Hg10 mi
4:54 pm78 °FSunny.9 mph46%30.01 "Hg10 mi
3:54 pm77 °FPassing clouds.7 mph48%30.01 "Hg10 mi
2:54 pm77 °FSunny.8 mph50%30.02 "Hg10 mi
1:54 pm77 °FSunny.13 mph50%30.03 "Hg10 mi
12:54 pm74 °FSunny.12 mph53%30.05 "Hg10 mi
11:54 am73 °FSunny.7 mph51%30.06 "Hg10 mi
10:54 am72 °FSunny.13 mph55%30.05 "Hg10 mi
9:54 am70 °FSunny.10 mph59%30.06 "Hg10 mi
8:54 am69 °FSunny.10 mph61%30.06 "Hg10 mi
7:54 am66 °FSunny.9 mph68%30.05 "Hg10 mi
6:54 am64 °FSunny.7 mph75%30.04 "Hg10 mi
5:54 am62 °FSunny.6 mph78%30.03 "Hg10 mi
4:54 am63 °FClear.8 mph78%30.02 "Hg10 mi
3:54 am66 °FClear.10 mph70%30.00 "Hg10 mi
2:54 am66 °FClear.10 mph70%29.99 "Hg10 mi
1:54 am68 °FClear.14 mph68%29.99 "Hg10 mi
12:54 am69 °FClear.14 mph66%29.98 "Hg10 mi
11:54 pm
Sun, Jul 14
68 °FClear.9 mph70%29.98 "Hg10 mi
10:54 pm71 °FClear.8 mph66%29.98 "Hg10 mi
Weather by CustomWeather, © 2019

See weather overview

LIVE PARTIAL LUNAR ECLIPSE – Watch the eclipse as it happens